Time,TemperatureF,DewpointF,PressureIn,WindDirection,WindDirectionDegrees,WindSpeedMPH,WindSpeedGustMPH,Humidity,HourlyPrecipIn,Conditions,Clouds,dailyrainin,SoftwareType,DateUTC
2013-11-08 00:01:00,32.9,30.0,29.89,West,269,2.0,8.0,89,0.00,,,0.54,Wunderground v.1.15,2013-11-08 05:01:00,
2013-11-08 00:02:00,32.9,30.0,29.90,WNW,286,2.0,8.0,89,0.00,,,0.00,Wunderground v.1.15,2013-11-08 05:02:00,
2013-11-08 00:03:00,32.8,29.9,29.90,West,274,2.0,8.0,89,0.00,,,0.00,Wunderground v.1.15,2013-11-08 05:03:00,
2013-11-08 00:07:00,32.8,29.9,29.90,WSW,250,2.0,8.0,89,0.00,,,0.00,Wunderground v.1.15,2013-11-08 05:07:00,
2013-11-08 00:12:00,32.8,29.9,29.89,WNW,299,2.0,8.0,89,0.00,,,0.00,Wunderground v.1.15,2013-11-08 05:12:00,
2013-11-08 00:16:00,32.7,29.8,29.89,West,277,2.0,8.0,89,0.00,,,0.00,Wunderground v.1.15,2013-11-08 05:16:00,
2013-11-08 00:21:00,32.7,29.8,29.89,WNW,283,2.0,8.0,89,0.00,,,0.00,Wunderground v.1.15,2013-11-08 05:21:00,
2013-11-08 00:24:00,32.6,29.7,29.89,West,268,2.0,8.0,89,0.00,,,0.00,Wunderground v.1.15,2013-11-08 05:24:00,
2013-11-08 00:29:00,32.5,29.6,29.89,WSW,243,2.0,8.0,89,0.00,,,0.00,Wunderground v.1.15,2013-11-08 05:29:00,
2013-11-08 00:34:00,32.6,29.7,29.89,WNW,295,2.0,8.0,89,0.00,,,0.00,Wunderground v.1.15,2013-11-08 05:34:00,
2013-11-08 00:39:00,32.5,29.6,29.89,WNW,294,2.0,8.0,89,0.00,,,0.00,Wunderground v.1.15,2013-11-08 05:39:00,
2013-11-08 00:44:00,32.5,29.9,29.89,NW,319,2.0,8.0,90,0.00,,,0.00,Wunderground v.1.15,2013-11-08 05:44:00,
2013-11-08 00:49:00,32.5,29.9,29.89,WSW,243,3.0,8.0,90,0.00,,,0.00,Wunderground v.1.15,2013-11-08 05:49:00,
2013-11-08 00:54:00,32.5,29.9,29.89,West,273,2.0,8.0,90,0.00,,,0.00,Wunderground v.1.15,2013-11-08 05:54:00,
2013-11-08 00:59:00,32.5,29.6,29.89,WNW,288,2.0,8.0,89,0.00,,,0.00,Wunderground v.1.15,2013-11-08 05:59:00,
2013-11-08 01:04:00,32.5,29.6,29.89,WNW,283,2.0,8.0,89,0.00,,,0.00,Wunderground v.1.15,2013-11-08 06:04:00,
2013-11-08 01:09:00,32.5,29.6,29.89,NNW,330,2.0,8.0,89,0.00,,,0.00,Wunderground v.1.15,2013-11-08 06:09:00,
2013-11-08 01:15:00,32.5,29.6,29.89,SSW,211,2.0,8.0,89,0.00,,,0.00,Wunderground v.1.15,2013-11-08 06:15:00,
2013-11-08 01:20:00,32.5,29.6,29.89,West,264,2.0,8.0,89,0.00,,,0.00,Wunderground v.1.15,2013-11-08 06:20:00,
2013-11-08 01:25:00,32.5,29.6,29.89,East,101,3.0,8.0,89,0.00,,,0.00,Wunderground v.1.15,2013-11-08 06:25:00,
2013-11-08 01:30:00,32.5,29.6,29.90,SW,231,2.0,8.0,89,0.00,,,0.00,Wunderground v.1.15,2013-11-08 06:30:00,
2013-11-08 01:35:00,32.4,29.5,29.89,WNW,288,2.0,8.0,89,0.00,,,0.00,Wunderground v.1.15,2013-11-08 06:35:00,
2013-11-08 01:41:00,32.3,29.4,29.89,WNW,299,2.0,8.0,89,0.00,,,0.00,Wunderground v.1.15,2013-11-08 06:41:00,
2013-11-08 01:46:00,32.3,29.4,29.90,WNW,284,2.0,8.0,89,0.00,,,0.00,Wunderground v.1.15,2013-11-08 06:46:00,
2013-11-08 01:51:00,32.3,29.1,29.89,SW,218,3.0,10.0,88,0.00,,,0.00,Wunderground v.1.15,2013-11-08 06:51:00,
2013-11-08 01:56:00,32.3,29.1,29.90,WNW,295,4.0,10.0,88,0.00,,,0.00,Wunderground v.1.15,2013-11-08 06:56:00,
2013-11-08 02:01:00,32.3,29.1,29.90,SSW,210,3.0,6.0,88,0.00,,,0.00,Wunderground v.1.15,2013-11-08 07:01:00,
2013-11-08 02:07:00,32.3,28.9,29.89,NE,36,3.0,8.0,87,0.00,,,0.00,Wunderground v.1.15,2013-11-08 07:07:00,
2013-11-08 02:12:00,32.3,28.9,29.90,WNW,285,3.0,8.0,87,0.00,,,0.00,Wunderground v.1.15,2013-11-08 07:12:00,
2013-11-08 02:17:00,32.1,28.7,29.90,NNW,332,3.0,8.0,87,0.00,,,0.00,Wunderground v.1.15,2013-11-08 07:17:00,
2013-11-08 02:22:00,32.1,28.7,29.90,WSW,255,3.0,8.0,87,0.00,,,0.00,Wunderground v.1.15,2013-11-08 07:22:00,
2013-11-08 02:27:00,32.1,28.7,29.90,West,280,3.0,8.0,87,0.00,,,0.00,Wunderground v.1.15,2013-11-08 07:27:00,
2013-11-08 02:33:00,32.0,28.6,29.91,WNW,285,3.0,8.0,87,0.00,,,0.00,Wunderground v.1.15,2013-11-08 07:33:00,
2013-11-08 02:38:00,32.0,28.6,29.91,WSW,255,2.0,8.0,87,0.00,,,0.00,Wunderground v.1.15,2013-11-08 07:38:00,
2013-11-08 02:43:00,31.9,28.5,29.91,West,271,3.0,8.0,87,0.00,,,0.00,Wunderground v.1.15,2013-11-08 07:43:00,
2013-11-08 02:48:00,31.8,28.4,29.90,SSW,207,3.0,8.0,87,0.00,,,0.00,Wunderground v.1.15,2013-11-08 07:48:00,
2013-11-08 02:53:00,31.8,28.4,29.91,SW,234,2.0,8.0,87,0.00,,,0.00,Wunderground v.1.15,2013-11-08 07:53:00,
2013-11-08 02:59:00,31.8,28.4,29.91,SW,232,2.0,8.0,87,0.00,,,0.00,Wunderground v.1.15,2013-11-08 07:59:00,
2013-11-08 03:04:00,31.8,28.4,29.90,SW,214,2.0,8.0,87,0.00,,,0.00,Wunderground v.1.15,2013-11-08 08:04:00,
2013-11-08 03:09:00,31.8,28.4,29.91,WNW,284,2.0,8.0,87,0.00,,,0.00,Wunderground v.1.15,2013-11-08 08:09:00,
2013-11-08 03:14:00,31.9,28.5,29.90,West,278,3.0,8.0,87,0.00,,,0.00,Wunderground v.1.15,2013-11-08 08:14:00,
2013-11-08 03:19:00,31.8,28.4,29.91,West,266,3.0,8.0,87,0.00,,,0.00,Wunderground v.1.15,2013-11-08 08:19:00,
2013-11-08 03:25:00,31.9,28.5,29.90,NNE,14,3.0,8.0,87,0.00,,,0.00,Wunderground v.1.15,2013-11-08 08:25:00,
2013-11-08 03:30:00,31.9,28.5,29.91,SW,224,3.0,3.0,87,0.00,,,0.00,Wunderground v.1.15,2013-11-08 08:30:00,
2013-11-08 03:35:00,31.9,28.5,29.91,WNW,287,2.0,8.0,87,0.00,,,0.00,Wunderground v.1.15,2013-11-08 08:35:00,
2013-11-08 03:40:00,31.9,28.5,29.91,West,270,2.0,8.0,87,0.00,,,0.00,Wunderground v.1.15,2013-11-08 08:40:00,
2013-11-08 03:45:00,32.0,28.6,29.90,NW,316,2.0,8.0,87,0.00,,,0.00,Wunderground v.1.15,2013-11-08 08:45:00,
2013-11-08 03:51:00,32.0,28.6,29.90,WSW,245,2.0,8.0,87,0.00,,,0.00,Wunderground v.1.15,2013-11-08 08:51:00,
2013-11-08 03:56:00,32.0,28.3,29.90,SSW,210,3.0,8.0,86,0.00,,,0.00,Wunderground v.1.15,2013-11-08 08:56:00,
2013-11-08 04:01:00,32.1,28.4,29.90,WNW,287,3.0,8.0,86,0.00,,,0.00,Wunderground v.1.15,2013-11-08 09:01:00,
2013-11-08 04:06:00,32.0,28.3,29.91,NW,304,4.0,8.0,86,0.00,,,0.00,Wunderground v.1.15,2013-11-08 09:06:00,
2013-11-08 04:11:00,32.0,28.3,29.91,West,281,4.0,8.0,86,0.00,,,0.00,Wunderground v.1.15,2013-11-08 09:11:00,
2013-11-08 04:17:00,32.0,28.3,29.91,SW,218,3.0,8.0,86,0.00,,,0.00,Wunderground v.1.15,2013-11-08 09:17:00,
2013-11-08 04:22:00,32.0,28.3,29.91,WNW,288,4.0,8.0,86,0.00,,,0.00,Wunderground v.1.15,2013-11-08 09:22:00,
2013-11-08 04:27:00,32.0,28.3,29.91,NNE,15,3.0,8.0,86,0.00,,,0.00,Wunderground v.1.15,2013-11-08 09:27:00,
2013-11-08 04:32:00,32.0,28.3,29.91,WNW,283,3.0,8.0,86,0.00,,,0.00,Wunderground v.1.15,2013-11-08 09:32:00,
2013-11-08 04:37:00,32.0,28.3,29.91,South,173,3.0,8.0,86,0.00,,,0.00,Wunderground v.1.15,2013-11-08 09:37:00,
2013-11-08 04:42:00,32.0,28.3,29.92,WNW,285,3.0,8.0,86,0.00,,,0.00,Wunderground v.1.15,2013-11-08 09:42:00,
2013-11-08 04:47:00,31.9,28.2,29.92,SW,234,2.0,8.0,86,0.00,,,0.00,Wunderground v.1.15,2013-11-08 09:47:00,
2013-11-08 04:52:00,31.8,28.1,29.92,West,270,3.0,8.0,86,0.00,,,0.00,Wunderground v.1.15,2013-11-08 09:52:00,
2013-11-08 04:57:00,31.8,28.1,29.92,WSW,256,4.0,8.0,86,0.00,,,0.00,Wunderground v.1.15,2013-11-08 09:57:00,
2013-11-08 05:02:00,31.8,28.1,29.92,WNW,290,3.0,8.0,86,0.00,,,0.00,Wunderground v.1.15,2013-11-08 10:02:00,
2013-11-08 05:07:00,31.8,28.1,29.92,SSW,205,3.0,8.0,86,0.00,,,0.00,Wunderground v.1.15,2013-11-08 10:07:00,
2013-11-08 05:13:00,31.8,28.1,29.93,West,263,3.0,8.0,86,0.00,,,0.00,Wunderground v.1.15,2013-11-08 10:13:00,
2013-11-08 05:18:00,31.8,28.1,29.93,WNW,288,2.0,8.0,86,0.00,,,0.00,Wunderground v.1.15,2013-11-08 10:18:00,
2013-11-08 05:23:00,31.8,28.1,29.93,WNW,284,3.0,8.0,86,0.00,,,0.00,Wunderground v.1.15,2013-11-08 10:23:00,
2013-11-08 05:28:00,31.9,27.9,29.93,SW,214,4.0,8.0,85,0.00,,,0.00,Wunderground v.1.15,2013-11-08 10:28:00,
2013-11-08 05:33:00,31.9,27.9,29.93,West,278,4.0,8.0,85,0.00,,,0.00,Wunderground v.1.15,2013-11-08 10:33:00,
2013-11-08 05:39:00,31.8,27.8,29.93,WNW,284,4.0,8.0,85,0.00,,,0.00,Wunderground v.1.15,2013-11-08 10:39:00,
2013-11-08 05:44:00,31.8,27.8,29.93,West,268,4.0,15.0,85,0.00,,,0.00,Wunderground v.1.15,2013-11-08 10:44:00,
2013-11-08 05:49:00,31.8,27.8,29.93,WNW,285,4.0,15.0,85,0.00,,,0.00,Wunderground v.1.15,2013-11-08 10:49:00,
2013-11-08 05:54:00,31.8,27.5,29.93,West,262,5.0,8.0,84,0.00,,,0.00,Wunderground v.1.15,2013-11-08 10:54:00,
2013-11-08 05:59:00,31.7,27.4,29.93,WNW,298,4.0,8.0,84,0.00,,,0.00,Wunderground v.1.15,2013-11-08 10:59:00,
2013-11-08 06:05:00,31.5,27.2,29.93,WSW,256,3.0,8.0,84,0.00,,,0.00,Wunderground v.1.15,2013-11-08 11:05:00,
2013-11-08 06:11:00,31.4,27.4,29.94,NW,308,3.0,8.0,85,0.00,,,0.00,Wunderground v.1.15,2013-11-08 11:11:00,
2013-11-08 06:16:00,31.3,27.3,29.94,WSW,252,4.0,8.0,85,0.00,,,0.00,Wunderground v.1.15,2013-11-08 11:16:00,
2013-11-08 06:21:00,31.2,27.2,29.94,SW,235,3.0,5.0,85,0.00,,,0.00,Wunderground v.1.15,2013-11-08 11:21:00,
2013-11-08 06:26:00,31.2,27.2,29.94,West,274,4.0,7.0,85,0.00,,,0.00,Wunderground v.1.15,2013-11-08 11:26:00,
2013-11-08 06:31:00,31.2,27.2,29.94,WSW,252,4.0,4.0,85,0.00,,,0.00,Wunderground v.1.15,2013-11-08 11:31:00,
2013-11-08 06:36:00,31.2,27.2,29.95,WNW,300,4.0,4.0,85,0.00,,,0.00,Wunderground v.1.15,2013-11-08 11:36:00,
2013-11-08 06:41:00,31.2,27.5,29.95,NW,314,3.0,3.0,86,0.00,,,0.00,Wunderground v.1.15,2013-11-08 11:41:00,
2013-11-08 06:46:00,31.2,27.5,29.95,NW,319,3.0,5.0,86,0.00,,,0.00,Wunderground v.1.15,2013-11-08 11:46:00,
2013-11-08 06:51:00,31.2,27.5,29.96,WSW,252,3.0,5.0,86,0.00,,,0.00,Wunderground v.1.15,2013-11-08 11:51:00,
2013-11-08 06:57:00,31.3,27.6,29.96,WNW,302,3.0,8.0,86,0.00,,,0.00,Wunderground v.1.15,2013-11-08 11:57:00,
2013-11-08 07:02:00,31.3,27.6,29.96,WNW,297,4.0,15.0,86,0.00,,,0.00,Wunderground v.1.15,2013-11-08 12:02:00,
2013-11-08 07:07:00,31.3,27.6,29.96,WNW,288,5.0,15.0,86,0.00,,,0.00,Wunderground v.1.15,2013-11-08 12:07:00,
2013-11-08 07:12:00,31.3,27.6,29.96,WSW,245,5.0,15.0,86,0.00,,,0.00,Wunderground v.1.15,2013-11-08 12:12:00,
2013-11-08 07:17:00,31.4,27.7,29.96,SW,214,5.0,15.0,86,0.00,,,0.00,Wunderground v.1.15,2013-11-08 12:17:00,
2013-11-08 07:23:00,31.4,27.7,29.96,WNW,285,5.0,15.0,86,0.00,,,0.00,Wunderground v.1.15,2013-11-08 12:23:00,
2013-11-08 07:28:00,31.5,27.8,29.96,SW,232,4.0,15.0,86,0.00,,,0.00,Wunderground v.1.15,2013-11-08 12:28:00,
2013-11-08 07:33:00,31.4,27.7,29.97,WSW,249,3.0,15.0,86,0.00,,,0.00,Wunderground v.1.15,2013-11-08 12:33:00,
2013-11-08 07:38:00,31.5,27.8,29.97,ESE,122,3.0,15.0,86,0.00,,,0.00,Wunderground v.1.15,2013-11-08 12:38:00,
2013-11-08 07:43:00,31.4,27.7,29.97,NW,325,3.0,15.0,86,0.00,,,0.00,Wunderground v.1.15,2013-11-08 12:43:00,
2013-11-08 07:49:00,31.5,27.8,29.97,WSW,245,3.0,15.0,86,0.00,,,0.00,Wunderground v.1.15,2013-11-08 12:49:00,
2013-11-08 07:54:00,31.6,27.9,29.98,SW,214,3.0,15.0,86,0.00,,,0.00,Wunderground v.1.15,2013-11-08 12:54:00,
2013-11-08 07:59:00,31.6,27.9,29.98,WSW,257,3.0,15.0,86,0.00,,,0.00,Wunderground v.1.15,2013-11-08 12:59:00,
2013-11-08 08:04:00,31.7,27.7,29.98,WNW,294,3.0,15.0,85,0.00,,,0.00,Wunderground v.1.15,2013-11-08 13:04:00,
2013-11-08 08:09:00,31.7,27.7,29.99,WNW,296,4.0,15.0,85,0.00,,,0.00,Wunderground v.1.15,2013-11-08 13:09:00,
2013-11-08 08:15:00,31.8,27.8,29.99,SW,231,4.0,15.0,85,0.00,,,0.00,Wunderground v.1.15,2013-11-08 13:15:00,
2013-11-08 08:20:00,31.8,27.8,29.99,WSW,245,4.0,4.0,85,0.00,,,0.00,Wunderground v.1.15,2013-11-08 13:20:00,
2013-11-08 08:25:00,31.8,27.5,29.98,SSW,208,4.0,15.0,84,0.00,,,0.00,Wunderground v.1.15,2013-11-08 13:25:00,
2013-11-08 08:30:00,31.9,27.9,29.99,West,273,4.0,15.0,85,0.00,,,0.00,Wunderground v.1.15,2013-11-08 13:30:00,
2013-11-08 08:35:00,31.9,27.9,29.99,West,259,4.0,15.0,85,0.00,,,0.00,Wunderground v.1.15,2013-11-08 13:35:00,
2013-11-08 08:41:00,31.9,27.6,29.99,WSW,243,5.0,15.0,84,0.00,,,0.00,Wunderground v.1.15,2013-11-08 13:41:00,
2013-11-08 08:46:00,32.1,28.1,29.99,NW,311,4.0,15.0,85,0.00,,,0.00,Wunderground v.1.15,2013-11-08 13:46:00,
2013-11-08 08:51:00,32.2,28.2,29.99,SSW,207,4.0,15.0,85,0.00,,,0.00,Wunderground v.1.15,2013-11-08 13:51:00,
2013-11-08 08:56:00,32.3,28.3,30.00,West,273,4.0,15.0,85,0.00,,,0.00,Wunderground v.1.15,2013-11-08 13:56:00,
2013-11-08 09:01:00,32.3,28.6,30.00,WNW,287,5.0,15.0,86,0.00,,,0.00,Wunderground v.1.15,2013-11-08 14:01:00,
2013-11-08 09:07:00,32.5,28.5,30.00,WNW,286,5.0,15.0,85,0.00,,,0.00,Wunderground v.1.15,2013-11-08 14:07:00,
2013-11-08 09:12:00,32.4,28.1,30.00,WSW,249,5.0,15.0,84,0.00,,,0.00,Wunderground v.1.15,2013-11-08 14:12:00,
2013-11-08 09:17:00,32.4,28.4,30.00,SW,232,4.0,15.0,85,0.00,,,0.00,Wunderground v.1.15,2013-11-08 14:17:00,
2013-11-08 09:22:00,32.4,28.1,30.00,SW,226,4.0,15.0,84,0.00,,,0.00,Wunderground v.1.15,2013-11-08 14:22:00,
2013-11-08 09:27:00,32.5,28.5,30.00,West,267,4.0,15.0,85,0.00,,,0.00,Wunderground v.1.15,2013-11-08 14:27:00,
2013-11-08 09:33:00,32.7,28.4,30.00,WNW,290,4.0,15.0,84,0.00,,,0.00,Wunderground v.1.15,2013-11-08 14:33:00,
2013-11-08 09:38:00,32.8,28.5,30.00,WNW,301,4.0,15.0,84,0.00,,,0.00,Wunderground v.1.15,2013-11-08 14:38:00,
2013-11-08 09:43:00,32.8,28.2,30.00,SE,136,3.0,15.0,83,0.00,,,0.00,Wunderground v.1.15,2013-11-08 14:43:00,
2013-11-08 09:48:00,32.9,28.3,30.00,WNW,288,3.0,15.0,83,0.00,,,0.00,Wunderground v.1.15,2013-11-08 14:48:00,
2013-11-08 09:53:00,32.9,28.3,30.00,SW,228,3.0,15.0,83,0.00,,,0.00,Wunderground v.1.15,2013-11-08 14:53:00,
2013-11-08 09:59:00,33.1,28.8,30.00,WSW,255,4.0,15.0,84,0.00,,,0.00,Wunderground v.1.15,2013-11-08 14:59:00,
2013-11-08 10:04:00,33.2,28.9,30.00,WNW,285,3.0,15.0,84,0.00,,,0.00,Wunderground v.1.15,2013-11-08 15:04:00,
2013-11-08 10:09:00,33.2,28.9,30.00,WNW,283,4.0,15.0,84,0.00,,,0.00,Wunderground v.1.15,2013-11-08 15:09:00,
2013-11-08 10:14:00,32.9,29.2,30.00,West,273,4.0,15.0,86,0.00,,,0.00,Wunderground v.1.15,2013-11-08 15:14:00,
2013-11-08 10:19:00,32.7,29.5,30.01,NNW,338,3.0,15.0,88,0.00,,,0.00,Wunderground v.1.15,2013-11-08 15:19:00,
2013-11-08 10:24:00,32.6,29.4,30.01,West,267,4.0,15.0,88,0.00,,,0.00,Wunderground v.1.15,2013-11-08 15:24:00,
2013-11-08 10:29:00,32.4,29.5,30.01,WNW,301,4.0,15.0,89,0.00,,,0.00,Wunderground v.1.15,2013-11-08 15:29:00,
2013-11-08 10:34:00,32.1,29.5,30.01,West,277,4.0,15.0,90,0.00,,,0.00,Wunderground v.1.15,2013-11-08 15:34:00,
2013-11-08 10:40:00,31.8,29.7,30.01,WNW,290,4.0,4.0,92,0.00,,,0.00,Wunderground v.1.15,2013-11-08 15:40:00,
2013-11-08 10:45:00,31.6,29.8,30.01,NW,305,3.0,15.0,93,0.00,,,0.00,Wunderground v.1.15,2013-11-08 15:45:00,
2013-11-08 10:50:00,31.5,29.7,30.01,WNW,284,3.0,15.0,93,0.00,,,0.00,Wunderground v.1.15,2013-11-08 15:50:00,
2013-11-08 10:55:00,31.5,30.0,30.01,West,277,2.0,15.0,94,0.00,,,0.00,Wunderground v.1.15,2013-11-08 15:55:00,
2013-11-08 11:00:00,31.6,30.1,30.01,SW,214,2.0,2.0,94,0.00,,,0.00,Wunderground v.1.15,2013-11-08 16:00:00,
2013-11-08 11:05:00,31.7,30.2,30.02,West,259,2.0,15.0,94,0.00,,,0.00,Wunderground v.1.15,2013-11-08 16:05:00,
2013-11-08 11:11:00,31.8,30.5,30.02,NW,305,3.0,4.0,95,0.00,,,0.00,Wunderground v.1.15,2013-11-08 16:11:00,
2013-11-08 11:16:00,31.7,30.2,30.02,WSW,239,4.0,15.0,94,0.00,,,0.00,Wunderground v.1.15,2013-11-08 16:16:00,
2013-11-08 11:21:00,31.4,29.9,30.02,West,263,4.0,15.0,94,0.00,,,0.00,Wunderground v.1.15,2013-11-08 16:21:00,
2013-11-08 11:26:00,31.3,29.8,30.02,NW,322,5.0,15.0,94,0.00,,,0.00,Wunderground v.1.15,2013-11-08 16:26:00,
2013-11-08 11:31:00,31.3,29.8,30.02,WNW,283,6.0,15.0,94,0.00,,,0.00,Wunderground v.1.15,2013-11-08 16:31:00,
2013-11-08 11:36:00,31.4,29.9,30.03,West,273,5.0,15.0,94,0.00,,,0.00,Wunderground v.1.15,2013-11-08 16:36:00,
2013-11-08 11:41:00,31.8,30.3,30.03,WNW,288,4.0,15.0,94,0.00,,,0.00,Wunderground v.1.15,2013-11-08 16:41:00,
2013-11-08 11:47:00,32.4,30.6,30.03,WNW,293,4.0,15.0,93,0.00,,,0.00,Wunderground v.1.15,2013-11-08 16:47:00,
2013-11-08 11:52:00,32.5,30.4,30.02,SSW,212,4.0,15.0,92,0.00,,,0.00,Wunderground v.1.15,2013-11-08 16:52:00,
2013-11-08 11:57:00,32.7,30.4,30.02,WNW,288,4.0,15.0,91,0.00,,,0.00,Wunderground v.1.15,2013-11-08 16:57:00,
2013-11-08 12:02:00,33.0,30.1,30.02,West,281,4.0,15.0,89,0.00,,,0.00,Wunderground v.1.15,2013-11-08 17:02:00,
2013-11-08 12:07:00,33.6,31.3,30.02,NE,45,6.0,15.0,91,0.00,,,0.00,Wunderground v.1.15,2013-11-08 17:07:00,
2013-11-08 12:13:00,33.3,30.1,30.03,NNE,23,7.0,15.0,88,0.00,,,0.00,Wunderground v.1.15,2013-11-08 17:13:00,
2013-11-08 12:18:00,32.8,29.6,30.03,SSW,195,7.0,15.0,88,0.00,,,0.00,Wunderground v.1.15,2013-11-08 17:18:00,
2013-11-08 12:23:00,32.7,30.1,30.03,West,263,6.0,15.0,90,0.00,,,0.00,Wunderground v.1.15,2013-11-08 17:23:00,
2013-11-08 12:28:00,32.7,29.5,30.02,West,266,6.0,15.0,88,0.00,,,0.00,Wunderground v.1.15,2013-11-08 17:28:00,
2013-11-08 12:33:00,32.8,28.8,30.03,WNW,289,6.0,15.0,85,0.00,,,0.00,Wunderground v.1.15,2013-11-08 17:33:00,
2013-11-08 12:39:00,33.1,29.4,30.03,West,276,6.0,15.0,86,0.00,,,0.00,Wunderground v.1.15,2013-11-08 17:39:00,
2013-11-08 12:44:00,33.1,28.5,30.03,WNW,284,7.0,15.0,83,0.00,,,0.00,Wunderground v.1.15,2013-11-08 17:44:00,
2013-11-08 12:49:00,33.1,28.2,30.03,West,273,7.0,15.0,82,0.00,,,0.00,Wunderground v.1.15,2013-11-08 17:49:00,
2013-11-08 12:54:00,33.1,28.5,30.03,North,8,7.0,15.0,83,0.00,,,0.00,Wunderground v.1.15,2013-11-08 17:54:00,
2013-11-08 12:59:00,33.1,27.9,30.03,WNW,287,6.0,15.0,81,0.00,,,0.00,Wunderground v.1.15,2013-11-08 17:59:00,
2013-11-08 13:05:00,33.2,27.7,30.04,North,356,5.0,15.0,80,0.00,,,0.00,Wunderground v.1.15,2013-11-08 18:05:00,
2013-11-08 13:10:00,33.2,26.5,30.04,NNW,333,7.0,7.0,76,0.00,,,0.00,Wunderground v.1.15,2013-11-08 18:10:00,
2013-11-08 13:15:00,33.3,26.5,30.04,West,266,8.0,15.0,76,0.00,,,0.00,Wunderground v.1.15,2013-11-08 18:15:00,
2013-11-08 13:20:00,33.3,26.9,30.04,NW,321,7.0,7.0,77,0.00,,,0.00,Wunderground v.1.15,2013-11-08 18:20:00,
2013-11-08 13:25:00,33.6,26.8,30.03,West,278,6.0,15.0,76,0.00,,,0.00,Wunderground v.1.15,2013-11-08 18:25:00,
2013-11-08 13:31:00,33.7,26.6,30.03,NW,326,6.0,15.0,75,0.00,,,0.00,Wunderground v.1.15,2013-11-08 18:31:00,
2013-11-08 13:36:00,33.8,26.1,30.03,North,1,6.0,15.0,73,0.00,,,0.00,Wunderground v.1.15,2013-11-08 18:36:00,
2013-11-08 13:41:00,33.9,27.1,30.04,West,277,5.0,15.0,76,0.00,,,0.00,Wunderground v.1.15,2013-11-08 18:41:00,
2013-11-08 13:46:00,33.8,26.4,30.04,NE,49,6.0,15.0,74,0.00,,,0.00,Wunderground v.1.15,2013-11-08 18:46:00,
2013-11-08 13:51:00,33.8,26.1,30.04,West,277,7.0,14.0,73,0.00,,,0.00,Wunderground v.1.15,2013-11-08 18:51:00,
2013-11-08 13:57:00,33.8,26.1,30.04,NW,305,8.0,15.0,73,0.00,,,0.00,Wunderground v.1.15,2013-11-08 18:57:00,
2013-11-08 14:02:00,33.8,26.4,30.03,West,274,7.0,15.0,74,0.00,,,0.00,Wunderground v.1.15,2013-11-08 19:02:00,
2013-11-08 14:07:00,34.0,26.9,30.04,WNW,287,5.0,15.0,75,0.00,,,0.00,Wunderground v.1.15,2013-11-08 19:07:00,
2013-11-08 14:12:00,34.1,26.7,30.04,NW,319,5.0,15.0,74,0.00,,,0.00,Wunderground v.1.15,2013-11-08 19:12:00,
2013-11-08 14:17:00,33.9,26.8,30.04,WNW,295,6.0,15.0,75,0.00,,,0.00,Wunderground v.1.15,2013-11-08 19:17:00,
2013-11-08 14:23:00,33.6,27.5,30.04,NNW,338,6.0,15.0,78,0.00,,,0.00,Wunderground v.1.15,2013-11-08 19:23:00,
2013-11-08 14:28:00,33.6,27.8,30.05,North,1,5.0,15.0,79,0.00,,,0.00,Wunderground v.1.15,2013-11-08 19:28:00,
2013-11-08 14:33:00,33.4,27.9,30.05,NW,306,5.0,15.0,80,0.00,,,0.00,Wunderground v.1.15,2013-11-08 19:33:00,
2013-11-08 14:38:00,33.2,28.0,30.05,NNW,342,5.0,15.0,81,0.00,,,0.00,Wunderground v.1.15,2013-11-08 19:38:00,
2013-11-08 14:43:00,32.8,28.2,30.05,WNW,285,4.0,15.0,83,0.00,,,0.00,Wunderground v.1.15,2013-11-08 19:43:00,
2013-11-08 14:48:00,32.6,28.3,30.05,SW,235,5.0,15.0,84,0.00,,,0.00,Wunderground v.1.15,2013-11-08 19:48:00,
2013-11-08 14:53:00,32.4,28.1,30.06,West,281,5.0,15.0,84,0.00,,,0.00,Wunderground v.1.15,2013-11-08 19:53:00,
2013-11-08 14:58:00,32.2,28.2,30.06,NW,304,4.0,15.0,85,0.00,,,0.00,Wunderground v.1.15,2013-11-08 19:58:00,
2013-11-08 15:04:00,31.9,28.8,30.07,NW,316,4.0,15.0,88,0.00,,,0.00,Wunderground v.1.15,2013-11-08 20:04:00,
2013-11-08 15:09:00,31.4,28.5,30.07,West,267,5.0,15.0,89,0.00,,,0.00,Wunderground v.1.15,2013-11-08 20:09:00,
2013-11-08 15:15:00,31.2,28.9,30.08,NW,307,4.0,15.0,91,0.00,,,0.00,Wunderground v.1.15,2013-11-08 20:15:00,
2013-11-08 15:20:00,31.0,28.9,30.08,NW,307,4.0,15.0,92,0.00,,,0.00,Wunderground v.1.15,2013-11-08 20:20:00,
2013-11-08 15:25:00,30.7,28.9,30.08,NNW,334,5.0,15.0,93,0.00,,,0.00,Wunderground v.1.15,2013-11-08 20:25:00,
2013-11-08 15:30:00,30.6,29.1,30.09,West,280,5.0,5.0,94,0.00,,,0.00,Wunderground v.1.15,2013-11-08 20:30:00,
2013-11-08 15:35:00,30.6,29.1,30.09,West,264,4.0,15.0,94,0.00,,,0.00,Wunderground v.1.15,2013-11-08 20:35:00,
2013-11-08 15:41:00,30.8,29.3,30.09,NW,312,4.0,12.0,94,0.00,,,0.00,Wunderground v.1.15,2013-11-08 20:41:00,
2013-11-08 15:46:00,30.8,29.0,30.09,WSW,249,4.0,15.0,93,0.00,,,0.00,Wunderground v.1.15,2013-11-08 20:46:00,
2013-11-08 15:51:00,30.9,28.9,30.09,WNW,293,4.0,15.0,92,0.00,,,0.00,Wunderground v.1.15,2013-11-08 20:51:00,
2013-11-08 15:56:00,31.1,28.8,30.09,WSW,253,4.0,15.0,91,0.00,,,0.00,Wunderground v.1.15,2013-11-08 20:56:00,
2013-11-08 16:01:00,31.2,28.9,30.09,West,276,4.0,6.0,91,0.00,,,0.00,Wunderground v.1.15,2013-11-08 21:01:00,
2013-11-08 16:06:00,31.2,28.6,30.09,West,266,4.0,15.0,90,0.00,,,0.00,Wunderground v.1.15,2013-11-08 21:06:00,
2013-11-08 16:11:00,31.3,28.4,30.10,NW,307,4.0,7.0,89,0.00,,,0.00,Wunderground v.1.15,2013-11-08 21:11:00,
2013-11-08 16:16:00,31.5,27.8,30.10,WNW,291,6.0,15.0,86,0.00,,,0.00,Wunderground v.1.15,2013-11-08 21:16:00,
2013-11-08 16:21:00,31.6,27.6,30.10,NW,308,7.0,8.0,85,0.00,,,0.00,Wunderground v.1.15,2013-11-08 21:21:00,
2013-11-08 16:26:00,31.6,27.6,30.10,WNW,295,5.0,15.0,85,0.00,,,0.00,Wunderground v.1.15,2013-11-08 21:26:00,
2013-11-08 16:31:00,31.6,27.6,30.11,NNW,332,4.0,5.0,85,0.00,,,0.00,Wunderground v.1.15,2013-11-08 21:31:00,
2013-11-08 16:37:00,31.6,27.6,30.11,West,281,5.0,15.0,85,0.00,,,0.00,Wunderground v.1.15,2013-11-08 21:37:00,
2013-11-08 16:42:00,31.4,27.7,30.11,NNW,342,4.0,15.0,86,0.00,,,0.00,Wunderground v.1.15,2013-11-08 21:42:00,
2013-11-08 16:47:00,31.4,27.4,30.11,WNW,297,4.0,15.0,85,0.00,,,0.00,Wunderground v.1.15,2013-11-08 21:47:00,
2013-11-08 16:52:00,31.4,27.7,30.11,NNW,345,5.0,15.0,86,0.00,,,0.00,Wunderground v.1.15,2013-11-08 21:52:00,
2013-11-08 16:57:00,31.4,27.7,30.10,West,277,6.0,15.0,86,0.00,,,0.00,Wunderground v.1.15,2013-11-08 21:57:00,
2013-11-08 17:03:00,31.3,27.9,30.11,WNW,295,6.0,15.0,87,0.00,,,0.00,Wunderground v.1.15,2013-11-08 22:03:00,
2013-11-08 17:08:00,31.0,28.1,30.11,West,279,5.0,15.0,89,0.00,,,0.00,Wunderground v.1.15,2013-11-08 22:08:00,
2013-11-08 17:13:00,30.9,28.0,30.11,SSW,204,3.0,15.0,89,0.00,,,0.00,Wunderground v.1.15,2013-11-08 22:13:00,
2013-11-08 17:18:00,30.9,28.0,30.11,WSW,251,3.0,15.0,89,0.00,,,0.00,Wunderground v.1.15,2013-11-08 22:18:00,
2013-11-08 17:23:00,30.8,28.2,30.12,West,270,4.0,15.0,90,0.00,,,0.00,Wunderground v.1.15,2013-11-08 22:23:00,
2013-11-08 17:29:00,30.6,28.3,30.12,WNW,283,4.0,15.0,91,0.00,,,0.00,Wunderground v.1.15,2013-11-08 22:29:00,
2013-11-08 17:34:00,30.6,28.3,30.12,WSW,255,4.0,15.0,91,0.00,,,0.00,Wunderground v.1.15,2013-11-08 22:34:00,
2013-11-08 17:39:00,30.6,28.3,30.12,WNW,301,3.0,15.0,91,0.00,,,0.00,Wunderground v.1.15,2013-11-08 22:39:00,
2013-11-08 17:44:00,30.8,28.5,30.13,WNW,284,3.0,15.0,91,0.00,,,0.00,Wunderground v.1.15,2013-11-08 22:44:00,
2013-11-08 17:49:00,30.8,28.2,30.13,WNW,297,4.0,15.0,90,0.00,,,0.00,Wunderground v.1.15,2013-11-08 22:49:00,
2013-11-08 17:55:00,30.9,28.3,30.13,WNW,284,5.0,15.0,90,0.00,,,0.00,Wunderground v.1.15,2013-11-08 22:55:00,
2013-11-08 18:00:00,30.8,28.2,30.13,WSW,238,5.0,15.0,90,0.00,,,0.00,Wunderground v.1.15,2013-11-08 23:00:00,
2013-11-08 18:05:00,30.8,28.2,30.13,SW,225,4.0,15.0,90,0.00,,,0.00,Wunderground v.1.15,2013-11-08 23:05:00,
2013-11-08 18:10:00,30.8,28.2,30.14,NW,308,4.0,15.0,90,0.00,,,0.00,Wunderground v.1.15,2013-11-08 23:10:00,
2013-11-08 18:15:00,30.7,28.4,30.14,WSW,240,4.0,15.0,91,0.00,,,0.00,Wunderground v.1.15,2013-11-08 23:15:00,
2013-11-08 18:21:00,30.6,28.6,30.15,WNW,287,3.0,15.0,92,0.00,,,0.00,Wunderground v.1.15,2013-11-08 23:21:00,
2013-11-08 18:26:00,30.5,28.5,30.15,SW,231,3.0,15.0,92,0.00,,,0.00,Wunderground v.1.15,2013-11-08 23:26:00,
2013-11-08 18:31:00,30.5,28.5,30.15,WSW,243,3.0,15.0,92,0.00,,,0.00,Wunderground v.1.15,2013-11-08 23:31:00,
2013-11-08 18:36:00,30.7,28.4,30.15,SW,222,4.0,15.0,91,0.00,,,0.00,Wunderground v.1.15,2013-11-08 23:36:00,
2013-11-08 18:41:00,30.8,28.2,30.15,West,278,4.0,15.0,90,0.00,,,0.00,Wunderground v.1.15,2013-11-08 23:41:00,
2013-11-08 18:47:00,30.9,28.3,30.16,NW,316,4.0,15.0,90,0.00,,,0.00,Wunderground v.1.15,2013-11-08 23:47:00,
2013-11-08 18:52:00,31.0,28.1,30.16,West,269,4.0,15.0,89,0.00,,,0.00,Wunderground v.1.15,2013-11-08 23:52:00,
2013-11-08 18:57:00,31.0,28.1,30.16,WSW,242,4.0,15.0,89,0.00,,,0.00,Wunderground v.1.15,2013-11-08 23:57:00,
2013-11-08 19:02:00,31.0,28.1,30.16,WNW,284,4.0,15.0,89,0.00,,,0.00,Wunderground v.1.15,2013-11-09 00:02:00,
2013-11-08 19:07:00,31.0,28.1,30.15,WNW,302,4.0,15.0,89,0.00,,,0.00,Wunderground v.1.15,2013-11-09 00:07:00,
2013-11-08 19:13:00,30.9,28.0,30.16,West,270,4.0,15.0,89,0.00,,,0.00,Wunderground v.1.15,2013-11-09 00:13:00,
2013-11-08 19:18:00,30.9,28.0,30.16,NE,36,4.0,16.0,89,0.00,,,0.00,Wunderground v.1.15,2013-11-09 00:18:00,
2013-11-08 19:23:00,30.8,27.9,30.16,WNW,301,5.0,16.0,89,0.00,,,0.00,Wunderground v.1.15,2013-11-09 00:23:00,
2013-11-08 19:28:00,30.8,27.9,30.16,WNW,302,4.0,16.0,89,0.00,,,0.00,Wunderground v.1.15,2013-11-09 00:28:00,
2013-11-08 19:33:00,30.6,27.7,30.16,WNW,290,3.0,16.0,89,0.00,,,0.00,Wunderground v.1.15,2013-11-09 00:33:00,
2013-11-08 19:38:00,30.4,27.5,30.16,WSW,240,3.0,16.0,89,0.00,,,0.00,Wunderground v.1.15,2013-11-09 00:38:00,
2013-11-08 19:43:00,30.3,27.4,30.16,SSW,195,4.0,16.0,89,0.00,,,0.00,Wunderground v.1.15,2013-11-09 00:43:00,
2013-11-08 19:48:00,30.2,27.3,30.16,West,276,4.0,16.0,89,0.00,,,0.00,Wunderground v.1.15,2013-11-09 00:48:00,
2013-11-08 19:53:00,30.3,27.7,30.17,NW,316,4.0,16.0,90,0.00,,,0.00,Wunderground v.1.15,2013-11-09 00:53:00,
2013-11-08 19:58:00,30.2,27.6,30.17,West,278,3.0,16.0,90,0.00,,,0.00,Wunderground v.1.15,2013-11-09 00:58:00,
2013-11-08 20:03:00,30.2,27.6,30.17,NW,305,3.0,16.0,90,0.00,,,0.00,Wunderground v.1.15,2013-11-09 01:03:00,
2013-11-08 20:09:00,30.4,27.8,30.17,WSW,245,4.0,16.0,90,0.00,,,0.00,Wunderground v.1.15,2013-11-09 01:09:00,
2013-11-08 20:14:00,30.4,27.5,30.17,West,267,3.0,16.0,89,0.00,,,0.00,Wunderground v.1.15,2013-11-09 01:14:00,
2013-11-08 20:19:00,30.5,27.6,30.17,WNW,300,3.0,16.0,89,0.00,,,0.00,Wunderground v.1.15,2013-11-09 01:19:00,
2013-11-08 20:24:00,30.6,27.7,30.17,West,277,4.0,16.0,89,0.00,,,0.00,Wunderground v.1.15,2013-11-09 01:24:00,
2013-11-08 20:29:00,30.6,27.7,30.17,WNW,285,4.0,16.0,89,0.00,,,0.00,Wunderground v.1.15,2013-11-09 01:29:00,
2013-11-08 20:35:00,30.7,27.8,30.17,West,268,3.0,16.0,89,0.00,,,0.00,Wunderground v.1.15,2013-11-09 01:35:00,
2013-11-08 20:40:00,30.7,27.8,30.17,WNW,284,4.0,16.0,89,0.00,,,0.00,Wunderground v.1.15,2013-11-09 01:40:00,
2013-11-08 20:45:00,30.7,27.8,30.17,WNW,287,3.0,16.0,89,0.00,,,0.00,Wunderground v.1.15,2013-11-09 01:45:00,
2013-11-08 20:50:00,30.7,27.8,30.18,WNW,295,3.0,3.0,89,0.00,,,0.00,Wunderground v.1.15,2013-11-09 01:50:00,
2013-11-08 20:55:00,30.7,27.8,30.18,WNW,288,3.0,16.0,89,0.00,,,0.00,Wunderground v.1.15,2013-11-09 01:55:00,
2013-11-08 21:01:00,30.8,27.9,30.18,NW,312,3.0,16.0,89,0.00,,,0.00,Wunderground v.1.15,2013-11-09 02:01:00,
2013-11-08 21:06:00,30.8,27.9,30.18,WNW,290,3.0,16.0,89,0.00,,,0.00,Wunderground v.1.15,2013-11-09 02:06:00,
2013-11-08 21:11:00,30.8,27.7,30.18,SW,214,3.0,16.0,88,0.00,,,0.00,Wunderground v.1.15,2013-11-09 02:11:00,
2013-11-08 21:16:00,30.9,27.8,30.18,NW,307,2.0,16.0,88,0.00,,,0.00,Wunderground v.1.15,2013-11-09 02:16:00,
2013-11-08 21:21:00,30.8,27.7,30.18,WNW,298,2.0,16.0,88,0.00,,,0.00,Wunderground v.1.15,2013-11-09 02:21:00,
2013-11-08 21:27:00,30.9,27.8,30.18,West,274,3.0,16.0,88,0.00,,,0.00,Wunderground v.1.15,2013-11-09 02:27:00,
2013-11-08 21:32:00,30.9,27.8,30.18,NW,310,3.0,16.0,88,0.00,,,0.00,Wunderground v.1.15,2013-11-09 02:32:00,
2013-11-08 21:37:00,31.0,27.9,30.18,WSW,252,3.0,16.0,88,0.00,,,0.00,Wunderground v.1.15,2013-11-09 02:37:00,
2013-11-08 21:42:00,31.0,27.9,30.19,NW,305,3.0,16.0,88,0.00,,,0.00,Wunderground v.1.15,2013-11-09 02:42:00,
2013-11-08 21:47:00,31.0,27.9,30.19,West,280,2.0,16.0,88,0.00,,,0.00,Wunderground v.1.15,2013-11-09 02:47:00,
2013-11-08 21:52:00,31.1,28.0,30.19,WNW,302,2.0,16.0,88,0.00,,,0.00,Wunderground v.1.15,2013-11-09 02:52:00,
2013-11-08 21:57:00,31.1,28.0,30.19,West,262,2.0,16.0,88,0.00,,,0.00,Wunderground v.1.15,2013-11-09 02:57:00,
2013-11-08 22:02:00,31.1,28.0,30.19,WNW,302,2.0,16.0,88,0.00,,,0.00,Wunderground v.1.15,2013-11-09 03:02:00,
2013-11-08 22:07:00,31.1,27.7,30.19,West,281,2.0,16.0,87,0.00,,,0.00,Wunderground v.1.15,2013-11-09 03:07:00,
2013-11-08 22:12:00,31.2,27.8,30.19,West,273,3.0,16.0,87,0.00,,,0.00,Wunderground v.1.15,2013-11-09 03:12:00,
2013-11-08 22:17:00,31.1,28.0,30.19,West,264,2.0,16.0,88,0.00,,,0.00,Wunderground v.1.15,2013-11-09 03:17:00,
2013-11-08 22:23:00,31.1,28.0,30.19,West,278,2.0,16.0,88,0.00,,,0.00,Wunderground v.1.15,2013-11-09 03:23:00,
2013-11-08 22:28:00,31.0,28.1,30.19,WSW,252,2.0,16.0,89,0.00,,,0.00,Wunderground v.1.15,2013-11-09 03:28:00,
2013-11-08 22:33:00,31.0,27.9,30.18,West,277,2.0,16.0,88,0.00,,,0.00,Wunderground v.1.15,2013-11-09 03:33:00,
2013-11-08 22:38:00,31.0,27.9,30.18,NNW,338,2.0,16.0,88,0.00,,,0.00,Wunderground v.1.15,2013-11-09 03:38:00,
2013-11-08 22:44:00,30.9,27.8,30.19,WNW,285,2.0,16.0,88,0.00,,,0.00,Wunderground v.1.15,2013-11-09 03:44:00,
2013-11-08 22:49:00,31.0,28.1,30.19,NW,307,2.0,16.0,89,0.00,,,0.00,Wunderground v.1.15,2013-11-09 03:49:00,
2013-11-08 22:54:00,30.9,27.8,30.18,WNW,288,1.0,16.0,88,0.00,,,0.00,Wunderground v.1.15,2013-11-09 03:54:00,
2013-11-08 23:00:00,30.9,27.8,30.19,WSW,250,3.0,3.0,88,0.00,,,0.00,Wunderground v.1.15,2013-11-09 04:00:00,
2013-11-08 23:05:00,30.9,27.8,30.19,WNW,285,2.0,16.0,88,0.00,,,0.00,Wunderground v.1.15,2013-11-09 04:05:00,
2013-11-08 23:10:00,30.9,28.0,30.19,West,279,2.0,16.0,89,0.00,,,0.00,Wunderground v.1.15,2013-11-09 04:10:00,
2013-11-08 23:15:00,30.9,28.0,30.19,WSW,257,2.0,16.0,89,0.00,,,0.00,Wunderground v.1.15,2013-11-09 04:15:00,
2013-11-08 23:20:00,30.9,28.0,30.19,NNW,332,2.0,16.0,89,0.00,,,0.00,Wunderground v.1.15,2013-11-09 04:20:00,
2013-11-08 23:25:00,30.8,27.9,30.19,West,277,2.0,16.0,89,0.00,,,0.00,Wunderground v.1.15,2013-11-09 04:25:00,
2013-11-08 23:30:00,30.8,27.9,30.19,West,274,2.0,16.0,89,0.00,,,0.00,Wunderground v.1.15,2013-11-09 04:30:00,
2013-11-08 23:35:00,30.8,27.9,30.19,West,262,2.0,16.0,89,0.00,,,0.00,Wunderground v.1.15,2013-11-09 04:35:00,
2013-11-08 23:40:00,30.8,27.9,30.19,WNW,293,1.0,1.0,89,0.00,,,0.00,Wunderground v.1.15,2013-11-09 04:40:00,
2013-11-08 23:46:00,30.8,27.9,30.19,SW,222,1.0,16.0,89,0.00,,,0.00,Wunderground v.1.15,2013-11-09 04:46:00,
2013-11-08 23:51:00,30.8,27.9,30.19,NNW,330,1.0,16.0,89,0.00,,,0.00,Wunderground v.1.15,2013-11-09 04:51:00,
2013-11-08 23:56:00,30.8,27.9,30.19,WNW,302,1.0,16.0,89,0.00,,,0.00,Wunderground v.1.15,2013-11-09 04:56:00,